{"data":{"norad_id":66657,"intl_designator":"2025-274H","name":"SPIRONE","alt_names":[],"object_type":"PAYLOAD","status":"ACTIVE","operator":null,"country":"SKOR","launch_date":"2025-11-26","launch_site_code":"NSC","launch_vehicle":null,"mission":null,"orbit_class":"UNKNOWN","rcs_meters":null,"size_class":null,"mass_kg":null,"dimensions":null,"purposes":[],"wikipedia_slug":null,"has_3d_model":false,"image_url":null,"decayed_at":null,"tle_current":{"epoch":"2026-09-20T10:42:11.827008Z","epoch_age_seconds":125600,"freshness":"FRESH","line1":"1 66657U 25274H   26263.44597022  .00001036  00000+0  10277-3 0  9991","line2":"2 66657  97.7484 191.3935 0013458  60.5566 299.6995 14.93858997 44449","mean_motion":14.93858997,"eccentricity":0.0013458,"inclination_deg":97.7484,"raan_deg":191.3935,"arg_perigee_deg":60.5566,"mean_anomaly_deg":299.6995,"bstar":0.00010277,"rev_number":4444,"period_min":96.394639848328,"perigee_km":576.54434811978,"apogee_km":595.2887947126,"semimajor_km":6964.0535714162,"source":"CELESTRAK","updated_at":"2026-09-21T09:00:16.116749Z"}}}